Regional Weather Roundup
Issued by NWS

Home | Current Version | Previous Version | Text Only | Print | Product List | Glossary On
Versions: 1 2 3 4 5 6 7 8 9 10 11 12 13 14 15 16 17 18 19 20 21 22 23 24 25 26 27 28 29 30 31 32 33 34 35 36 37 38 39 40 41 42 43 44 45 46 47 48 49 50
000
ASUS43 KMPX 281601
RWRMN
WEATHER ROUNDUP FOR MINNESOTA
NATIONAL WEATHER SERVICE TWIN CITIES/CHANHASSEN MN
1100 AM CDT FRI AUG 28 2015


NOTE: "FAIR" INDICATES FEW OR NO CLOUDS BELOW 12,000 FEET WITH NO
SIGNIFICANT WEATHER AND/OR OBSTRUCTIONS TO VISIBILITY. N/A MEANS
CURRENT SKY AND/OR WEATHER CONDITIONS ARE NOT AVAILABLE.

MNZ060>063-068>070-281700-
   Twin Cities Metro

CITY           SKY/WX    TMP DP  RH WIND       PRES   REMARKS
TWIN CITIES    CLOUDY    70  63  78 SE7       30.01F
ST PAUL        CLOUDY    69  63  81 SE6       30.02F
CRYSTAL        PTSUNNY   72  63  73 SE6       29.99F
BLAINE         CLOUDY    72  66  83 SE7       30.01F
LAKEVILLE      LGT RAIN  66  64  94 S8        30.00S
EDEN PRAIRIE   PTSUNNY   71  64  78 E10       29.99S
SOUTH ST PAUL  CLOUDY    69  63  80 SE3       30.01F
LAKE ELMO      FAIR      68  64  88 SE3       30.04S
$$
MNZ001>005-007-008-013>017-022>024-027-028-281700-
   Northwest Minnesota

CITY           SKY/WX    TMP DP  RH WIND       PRES   REMARKS
BEMIDJI        MOSUNNY   73  65  78 SW10      29.94S
HALLOCK        CLOUDY    70  66  88 S20       29.81F
ROSEAU         CLOUDY    66  61  82 SW18G26   29.84F
WARROAD        DRIZZLE   64  61  88 S9G18     29.80F
THIEF RVR FALL MOSUNNY  N/A N/A N/A S10       29.93R
CROOKSTON      PTSUNNY   72  66  83 S7        29.93R
FOSSTON        MOSUNNY   72  64  78 S12       29.95R
DETROIT LAKES  SUNNY     72  64  78 S8        29.97S
MOORHEAD       MOSUNNY   72  66  83 S13       29.95R
PARK RAPIDS    SUNNY     75  65  70 SW10      29.97S
MAHNOMEN       CLOUDY    72  66  82 S13       29.95R
$$
MNZ006-009>011-018-025>026-281700-
   North Central Minnesota

CITY           SKY/WX    TMP DP  RH WIND       PRES   REMARKS
BAUDETTE       LGT RAIN  67  65  93 S12G23    29.86F
FLAG ISLAND    CLOUDY    66  64  94 S10       29.81R FOG
INTL FALLS     CLOUDY    67  64  90 SW7       29.91R
WASKISH        PTSUNNY   70  66  88 SW7       29.93R
BIG FORK       CLOUDY    66  66 100 SW8       29.94R
LONGVILLE      PTSUNNY   72  64  78 S10       29.96F
GRAND RAPIDS     N/A     70  63  78 SW7       29.97S
CRANE LAKE     CLOUDY    64  63  94 SW6       29.95R
ORR            CLOUDY    64  63  94 CALM      29.92R
COOK           CLOUDY    66  64  94 CALM      29.95R
WALKER         CLOUDY    68  64  87 SW12      29.96R
$$
MNZ012-019>021-037-281700-
   Northeast Minnesota

CITY           SKY/WX    TMP DP  RH WIND       PRES   REMARKS
DULUTH         PTSUNNY   67  61  81 SW14      29.99R
ELY            CLOUDY    66  61  82 S7        29.94F
HIBBING        CLOUDY    69  64  84 VRB7      29.96S
EVELETH        CLOUDY    64  63  94 SW8       29.98S
DULUTH HARBOR  CLOUDY    66  63  88 SW15G21   29.98S
TWO HARBORS    PTSUNNY   70  63  78 S3        29.96R
SILVER BAY     CLOUDY    66  61  82 S3        29.96R
GRAND MARAIS     N/A     57  48  72 CALM      29.95S
G MARAIS ARPRT CLOUDY    64  55  72 SW3       29.99F
$$
MNZ029>031-032-039>041-046>048-054>057-064-281700-
   West Central Minnesota

CITY           SKY/WX    TMP DP  RH WIND       PRES   REMARKS
FERGUS FALLS   CLOUDY    70  66  88 S10       29.96S
WHEATON        PTSUNNY   66  63  88 S5        29.98R
MORRIS         PTSUNNY   72  66  83 SE6       29.96S
ALEXANDRIA     MOSUNNY   72  63  73 S12       30.00R
ELBOW LAKE     CLOUDY    67  64  92 S7        29.98R
WADENA         SUNNY     72  64  78 SW9G18    29.98R
GLENWOOD       MOSUNNY   72  64  78 S10       30.00R
APPLETON       MOSUNNY   73  64  73 S3        29.96R
BENSON         PTSUNNY   72  63  73 S8        29.98R
ORTONVILLE     CLOUDY    66  64  94 SE5       29.96S
MADISON        MOSUNNY   70  64  83 SE7       29.97R
WILLMAR        FAIR      73  66  78 SE12      29.98S
$$
MNZ033>034-036-042>043-049>051-058-059-281700-
   Central Minnesota

CITY           SKY/WX    TMP DP  RH WIND       PRES   REMARKS
ST CLOUD       MOSUNNY   71  64  78 S8        30.00R
SAUK CENTRE    FAIR      71  64  79 S6        30.00R
PAYNESVILLE    MOSUNNY   69  63  81 E8        29.99S
AITKIN         MOSUNNY   73  64  73 SW9G16    29.98R
PINE RIVER     MOSUNNY   72  64  78 SW9       30.00F
BRAINERD       SUNNY     74  63  68 SW9       29.99R
STAPLES        SUNNY     73  63  68 SW10      29.98S
LONG PRAIRIE   FAIR      70  63  78 S8        30.00S
LITTLE FALLS   SUNNY     72  61  68 S10       30.01R
LITCHFIELD     MOSUNNY   73  66  78 SE8       29.99S
BUFFALO        PTSUNNY   69  62  77 E5        30.00F
MAPLE LAKE     MOSUNNY   73  67  80 SE6       30.00F
$$
MNZ037-044-045-052-053-281700-
   East Central Minnesota

CITY           SKY/WX    TMP DP  RH WIND       PRES   REMARKS
PRINCETON      MOSUNNY   73  64  73 SE7       30.02R
MORA           MOSUNNY   70  63  78 S10       30.03S
CAMBRIDGE      MOSUNNY   73  61  64 S6        30.00R
RUSH CITY      CLOUDY    71  64  76 S7        30.03R
MOOSE LAKE     MOSUNNY   70  63  78 S9        29.98S
HINCKLEY       FAIR      72  64  78 SW12G18   30.01S
CLOQUET        CLOUDY    66  61  82 SW8       30.00R
MCGREGOR       MOSUNNY   72  63  73 SW10      30.00R
$$
MNZ071>073-080-081-089-090-097-098-281700-
   Southwest Minnesota

CITY           SKY/WX    TMP DP  RH WIND       PRES   REMARKS
MONTEVIDEO     MOSUNNY   73  66  78 S5        29.98S
GRANITE FALLS  MOSUNNY   72  64  76 E10       29.98S
CANBY          PTSUNNY   68  63  84 CALM      29.98R
MARSHALL       PTSUNNY   70  61  73 SE9       29.98R
REDWOOD FALLS  MOSUNNY   72  64  76 SE10      29.97R
OLIVIA         MOSUNNY   68  61  77 SE9       29.97S
PIPESTONE      PTSUNNY   68  64  88 E8        29.96R
WINDOM         CLOUDY    66  63  88 E13G20    29.98R
WORTHINGTON    CLOUDY    64  61  88 E17G24    29.96R
JACKSON        CLOUDY    64  63  94 E21G28    29.97S FOG
TRACY          CLOUDY    69  65  88 SE9       29.98R
SLAYTON        CLOUDY    67  65  91 CALM      29.98S
$$
MNZ065>067-074>077-082>085-091>093-281700-
   South Central Minnesota

CITY           SKY/WX    TMP DP  RH WIND       PRES   REMARKS
MANKATO        CLOUDY    68  63  83 SE17      29.97F
NEW ULM        PTSUNNY   72  64  78 SE14      29.98R
ST JAMES       PTSUNNY   68  64  88 E15       29.98S
FAIRMONT       CLOUDY    64  59  82 E13       29.97S
GLENCOE        PTSUNNY   74  64  71 SE9       29.98S
FARIBAULT      DRIZZLE   66  64  94 E8        30.00F
OWATONNA       LGT RAIN  66  63  88 E14       29.99F
WASECA         LGT RAIN  64  61  88 MISG      30.00F
ALBERT LEA     RAIN      63  63 100 E14G20    29.99R
$$
MNZ078>079-086>088-094>096-281700-
   Southeast Minnesota

CITY           SKY/WX    TMP DP  RH WIND       PRES   REMARKS
ROCHESTER      LGT RAIN  63  62  97 E10       30.06F FOG
RED WING       LGT RAIN  66  64  94 SE8       30.03S
STANTON        LGT RAIN  67  64  87 S9        30.00S
DODGE CENTER   LGT RAIN  64  63  94 CALM      30.02F
WINONA         RAIN      63  61  94 CALM      30.08S
AUSTIN         HVY RAIN  64  63  94 E13G18    30.01F
PRESTON        LGT RAIN  61  59  95 SE7       30.08F
$$
ABBREVIATIONS USED IN REMARKS
   TC - TEMPERATURES IN CELSIUS
  WCI - WIND CHILL INDEX
   HX - HEAT INDEX
  VSB - VISIBILITY
$$


USA.gov is the U.S. government's official web portal to all federal, state and local government web resources and services.